PRIVATE WETTERSTATION BILLIGHEIM-ALLFELD                       ZURCK
Wetterdaten: Freitag, 19.02.2016
Datum Zeit Temp. A. Temp. A. min Temp. A. max Feuchte A. Luftdruck Regen Wind Richtung Richtung Sonnenschein ET Solar Taupunkt Windchill Windben Empfang
19.02.2016 00:00 -1,7 C -1,7 C -1,6 C 91 % 1016,9 hPa 0,0 l/m 0,0 km/h (0 Bft) NW 315 0 min 0,000 mm 0 W/m -3,0 C -1,7 C 1,6 km/h (1 Bft) 98 %
19.02.2016 00:10 -1,8 C -1,8 C -1,7 C 91 % 1017,0 hPa 0,0 l/m 0,0 km/h (0 Bft) N-NW 337 0 min 0,000 mm 0 W/m -3,1 C -1,8 C 1,6 km/h (1 Bft) 97 %
19.02.2016 00:20 -1,8 C -1,8 C -1,8 C 91 % 1016,9 hPa 0,0 l/m 0,0 km/h (0 Bft) N 0 0 min 0,000 mm 0 W/m -3,1 C -1,8 C 0,0 km/h (0 Bft) 97 %
19.02.2016 00:30 -1,8 C -1,8 C -1,8 C 91 % 1016,9 hPa 0,0 l/m 0,0 km/h (0 Bft) N-NW 337 0 min 0,000 mm 0 W/m -3,1 C -1,8 C 1,6 km/h (1 Bft) 97 %
19.02.2016 00:40 -1,8 C -1,8 C -1,8 C 91 % 1016,9 hPa 0,0 l/m 0,0 km/h (0 Bft) N 0 0 min 0,000 mm 0 W/m -3,1 C -1,8 C 0,0 km/h (0 Bft) 98 %
19.02.2016 00:50 -1,7 C -1,8 C -1,7 C 91 % 1017,1 hPa 0,0 l/m 0,0 km/h (0 Bft) N-NW 337 0 min 0,000 mm 0 W/m -3,0 C -1,7 C 1,6 km/h (1 Bft) 98 %
19.02.2016 01:00 -1,6 C -1,7 C -1,6 C 91 % 1017,1 hPa 0,0 l/m 0,0 km/h (0 Bft) N 0 0 min 0,000 mm 0 W/m -2,9 C -1,6 C 0,0 km/h (0 Bft) 98 %
19.02.2016 01:10 -1,5 C -1,6 C -1,5 C 91 % 1017,1 hPa 0,0 l/m 0,0 km/h (0 Bft) N 0 0 min 0,000 mm 0 W/m -2,8 C -1,5 C 0,0 km/h (0 Bft) 98 %
19.02.2016 01:20 -1,4 C -1,5 C -1,4 C 91 % 1017,2 hPa 0,0 l/m 0,0 km/h (0 Bft) N 0 0 min 0,000 mm 0 W/m -2,7 C -1,4 C 0,0 km/h (0 Bft) 97 %
19.02.2016 01:30 -1,2 C -1,4 C -1,2 C 91 % 1017,2 hPa 0,0 l/m 0,0 km/h (0 Bft) N 0 0 min 0,000 mm 0 W/m -2,5 C -1,2 C 0,0 km/h (0 Bft) 98 %
19.02.2016 01:40 -0,9 C -1,2 C -0,9 C 91 % 1017,3 hPa 0,0 l/m 0,0 km/h (0 Bft) N 0 0 min 0,000 mm 0 W/m -2,2 C -0,9 C 0,0 km/h (0 Bft) 97 %
19.02.2016 01:50 -0,8 C -0,9 C -0,8 C 91 % 1017,3 hPa 0,0 l/m 0,0 km/h (0 Bft) N 0 0 min 0,000 mm 0 W/m -2,1 C -0,8 C 0,0 km/h (0 Bft) 98 %
19.02.2016 02:00 -0,6 C -0,8 C -0,6 C 91 % 1017,3 hPa 0,0 l/m 0,0 km/h (0 Bft) N 0 0 min 0,000 mm 0 W/m -1,9 C -0,6 C 0,0 km/h (0 Bft) 98 %
19.02.2016 02:10 -0,5 C -0,6 C -0,5 C 91 % 1017,2 hPa 0,0 l/m 0,0 km/h (0 Bft) N 0 0 min 0,000 mm 0 W/m -1,8 C -0,5 C 0,0 km/h (0 Bft) 98 %
19.02.2016 02:20 -0,3 C -0,4 C -0,3 C 91 % 1017,3 hPa 0,0 l/m 0,0 km/h (0 Bft) N 0 0 min 0,000 mm 0 W/m -1,6 C -0,3 C 0,0 km/h (0 Bft) 98 %
19.02.2016 02:30 -0,2 C -0,3 C -0,2 C 91 % 1017,2 hPa 0,0 l/m 0,0 km/h (0 Bft) N 0 0 min 0,000 mm 0 W/m -1,5 C -0,2 C 0,0 km/h (0 Bft) 97 %
19.02.2016 02:40 -0,1 C -0,2 C -0,1 C 91 % 1017,2 hPa 0,0 l/m 0,0 km/h (0 Bft) N 0 0 min 0,000 mm 0 W/m -1,4 C -0,1 C 0,0 km/h (0 Bft) 98 %
19.02.2016 02:50 -0,1 C -0,1 C -0,1 C 92 % 1017,2 hPa 0,0 l/m 0,0 km/h (0 Bft) N 0 0 min 0,000 mm 0 W/m -1,2 C -0,1 C 0,0 km/h (0 Bft) 97 %
19.02.2016 03:00 0,0 C -0,1 C 0,1 C 92 % 1017,2 hPa 0,0 l/m 0,0 km/h (0 Bft) N 0 0 min 0,000 mm 0 W/m -1,1 C 0,0 C 0,0 km/h (0 Bft) 98 %
19.02.2016 03:10 0,1 C 0,1 C 0,1 C 91 % 1017,1 hPa 0,0 l/m 0,0 km/h (0 Bft) N 0 0 min 0,000 mm 0 W/m -1,2 C 0,1 C 0,0 km/h (0 Bft) 98 %
19.02.2016 03:20 0,2 C 0,1 C 0,2 C 91 % 1017,2 hPa 0,0 l/m 0,0 km/h (0 Bft) N 0 0 min 0,000 mm 0 W/m -1,1 C 0,2 C 0,0 km/h (0 Bft) 89 %
19.02.2016 03:30 0,2 C 0,1 C 0,2 C 91 % 1017,4 hPa 0,0 l/m 0,0 km/h (0 Bft) N-NW 337 0 min 0,000 mm 0 W/m -1,1 C 0,2 C 1,6 km/h (1 Bft) 98 %
19.02.2016 03:40 0,2 C 0,2 C 0,2 C 91 % 1017,5 hPa 0,0 l/m 0,0 km/h (0 Bft) N 0 0 min 0,000 mm 0 W/m -1,1 C 0,2 C 0,0 km/h (0 Bft) 97 %
19.02.2016 03:50 0,2 C 0,2 C 0,2 C 91 % 1017,5 hPa 0,0 l/m 0,0 km/h (0 Bft) N 0 0 min 0,000 mm 0 W/m -1,1 C 0,2 C 0,0 km/h (0 Bft) 98 %
19.02.2016 04:00 0,2 C 0,2 C 0,2 C 91 % 1017,5 hPa 0,0 l/m 0,0 km/h (0 Bft) N 0 0 min 0,000 mm 0 W/m -1,1 C 0,2 C 0,0 km/h (0 Bft) 97 %
19.02.2016 04:10 0,3 C 0,2 C 0,3 C 91 % 1017,6 hPa 0,0 l/m 0,0 km/h (0 Bft) N 0 0 min 0,000 mm 0 W/m -1,0 C 0,3 C 0,0 km/h (0 Bft) 97 %
19.02.2016 04:20 0,3 C 0,3 C 0,3 C 91 % 1017,7 hPa 0,0 l/m 0,0 km/h (0 Bft) N 0 0 min 0,000 mm 0 W/m -1,0 C 0,3 C 0,0 km/h (0 Bft) 97 %
19.02.2016 04:30 0,3 C 0,3 C 0,3 C 91 % 1017,7 hPa 0,0 l/m 0,0 km/h (0 Bft) N 0 0 min 0,000 mm 0 W/m -1,0 C 0,3 C 0,0 km/h (0 Bft) 98 %
19.02.2016 04:40 0,3 C 0,3 C 0,3 C 91 % 1017,7 hPa 0,0 l/m 0,0 km/h (0 Bft) N 0 0 min 0,000 mm 0 W/m -1,0 C 0,3 C 0,0 km/h (0 Bft) 98 %
19.02.2016 04:50 0,3 C 0,3 C 0,3 C 91 % 1017,7 hPa 0,0 l/m 0,0 km/h (0 Bft) N 0 0 min 0,000 mm 0 W/m -1,0 C 0,3 C 0,0 km/h (0 Bft) 98 %
19.02.2016 05:00 0,2 C 0,2 C 0,3 C 91 % 1018,0 hPa 0,0 l/m 0,0 km/h (0 Bft) N 0 0 min 0,000 mm 0 W/m -1,1 C 0,2 C 0,0 km/h (0 Bft) 98 %
19.02.2016 05:10 0,2 C 0,2 C 0,2 C 91 % 1018,0 hPa 0,0 l/m 0,0 km/h (0 Bft) N 0 0 min 0,000 mm 0 W/m -1,1 C 0,2 C 0,0 km/h (0 Bft) 97 %
19.02.2016 05:20 0,2 C 0,2 C 0,2 C 91 % 1018,1 hPa 0,0 l/m 0,0 km/h (0 Bft) N 0 0 min 0,000 mm 0 W/m -1,1 C 0,2 C 0,0 km/h (0 Bft) 97 %
19.02.2016 05:30 0,2 C 0,2 C 0,2 C 91 % 1018,1 hPa 0,1 l/m 0,0 km/h (0 Bft) N 0 0 min 0,000 mm 0 W/m -1,1 C 0,2 C 0,0 km/h (0 Bft) 98 %
19.02.2016 05:40 0,2 C 0,2 C 0,2 C 91 % 1018,2 hPa 0,0 l/m 0,0 km/h (0 Bft) N 0 0 min 0,000 mm 0 W/m -1,1 C 0,2 C 0,0 km/h (0 Bft) 98 %
19.02.2016 05:50 0,2 C 0,2 C 0,2 C 91 % 1018,1 hPa 0,0 l/m 0,0 km/h (0 Bft) N 0 0 min 0,000 mm 0 W/m -1,1 C 0,2 C 0,0 km/h (0 Bft) 99 %
19.02.2016 06:00 0,2 C 0,2 C 0,2 C 91 % 1018,2 hPa 0,1 l/m 0,0 km/h (0 Bft) N 0 0 min 0,000 mm 0 W/m -1,1 C 0,2 C 0,0 km/h (0 Bft) 99 %
19.02.2016 06:10 0,1 C 0,1 C 0,2 C 91 % 1018,2 hPa 0,1 l/m 0,0 km/h (0 Bft) N 0 0 min 0,000 mm 0 W/m -1,2 C 0,1 C 0,0 km/h (0 Bft) 99 %
19.02.2016 06:20 0,1 C 0,1 C 0,1 C 92 % 1018,2 hPa 0,0 l/m 0,0 km/h (0 Bft) N 0 0 min 0,000 mm 0 W/m -1,0 C 0,1 C 0,0 km/h (0 Bft) 100 %
19.02.2016 06:30 0,1 C 0,1 C 0,1 C 92 % 1018,3 hPa 0,1 l/m 0,0 km/h (0 Bft) N-NW 337 0 min 0,000 mm 0 W/m -1,0 C 0,1 C 3,2 km/h (1 Bft) 100 %
19.02.2016 06:40 0,1 C 0,1 C 0,1 C 92 % 1018,5 hPa 0,0 l/m 0,0 km/h (0 Bft) N 0 0 min 0,000 mm 0 W/m -1,0 C 0,1 C 0,0 km/h (0 Bft) 100 %
19.02.2016 06:50 0,1 C 0,1 C 0,1 C 92 % 1018,6 hPa 0,0 l/m 0,0 km/h (0 Bft) NW 315 0 min 0,000 mm 0 W/m -1,0 C 0,1 C 3,2 km/h (1 Bft) 100 %
19.02.2016 07:00 0,1 C 0,1 C 0,1 C 92 % 1018,7 hPa 0,1 l/m 0,0 km/h (0 Bft) NW 315 0 min 0,000 mm 0 W/m -1,0 C 0,1 C 3,2 km/h (1 Bft) 99 %
19.02.2016 07:10 0,0 C 0,0 C 0,1 C 92 % 1018,9 hPa 0,0 l/m 0,0 km/h (0 Bft) NW 315 0 min 0,000 mm 0 W/m -1,1 C 0,0 C 1,6 km/h (1 Bft) 100 %
19.02.2016 07:20 0,0 C 0,0 C 0,0 C 92 % 1019,0 hPa 0,0 l/m 0,0 km/h (0 Bft) W-NW 292 0 min 0,000 mm 0 W/m -1,1 C 0,0 C 3,2 km/h (1 Bft) 100 %
19.02.2016 07:30 0,0 C 0,0 C 0,0 C 92 % 1019,0 hPa 0,0 l/m 0,0 km/h (0 Bft) W 270 0 min 0,000 mm 0 W/m -1,1 C 0,0 C 3,2 km/h (1 Bft) 99 %
19.02.2016 07:40 0,0 C 0,0 C 0,0 C 92 % 1019,2 hPa 0,0 l/m 0,0 km/h (0 Bft) W 270 0 min 0,000 mm 0 W/m -1,1 C 0,0 C 1,6 km/h (1 Bft) 89 %
19.02.2016 07:50 0,0 C -0,1 C 0,0 C 92 % 1019,3 hPa 0,0 l/m 0,0 km/h (0 Bft) W 270 0 min 0,000 mm 0 W/m -1,1 C 0,0 C 1,6 km/h (1 Bft) 100 %
19.02.2016 08:00 0,0 C -0,1 C 0,0 C 92 % 1019,3 hPa 0,1 l/m 0,0 km/h (0 Bft) W 270 0 min 0,000 mm 7 W/m -1,1 C 0,0 C 1,6 km/h (1 Bft) 100 %
19.02.2016 08:10 0,0 C 0,0 C 0,0 C 92 % 1019,4 hPa 0,0 l/m 0,0 km/h (0 Bft) W 270 0 min 0,000 mm 11 W/m -1,1 C 0,0 C 3,2 km/h (1 Bft) 100 %
19.02.2016 08:20 0,0 C 0,0 C 0,0 C 92 % 1019,5 hPa 0,0 l/m 0,0 km/h (0 Bft) W 270 0 min 0,000 mm 12 W/m -1,1 C 0,0 C 1,6 km/h (1 Bft) 100 %
19.02.2016 08:30 0,0 C 0,0 C 0,0 C 92 % 1019,6 hPa 0,0 l/m 0,0 km/h (0 Bft) W-SW 247 0 min 0,000 mm 14 W/m -1,1 C 0,0 C 3,2 km/h (1 Bft) 100 %
19.02.2016 08:40 0,1 C 0,0 C 0,1 C 92 % 1019,8 hPa 0,0 l/m 0,0 km/h (0 Bft) W-SW 247 0 min 0,000 mm 14 W/m -1,0 C 0,1 C 1,6 km/h (1 Bft) 100 %
19.02.2016 08:50 0,1 C 0,1 C 0,1 C 92 % 1019,8 hPa 0,0 l/m 0,0 km/h (0 Bft) W-SW 247 0 min 0,000 mm 14 W/m -1,0 C 0,1 C 1,6 km/h (1 Bft) 100 %
19.02.2016 09:00 0,1 C 0,1 C 0,1 C 92 % 1019,9 hPa 0,0 l/m 0,0 km/h (0 Bft) N 0 0 min 0,000 mm 16 W/m -1,0 C 0,1 C 0,0 km/h (0 Bft) 89 %
19.02.2016 09:10 0,1 C 0,1 C 0,1 C 92 % 1020,0 hPa 0,0 l/m 0,0 km/h (0 Bft) W-SW 247 0 min 0,000 mm 16 W/m -1,0 C 0,1 C 1,6 km/h (1 Bft) 100 %
19.02.2016 09:20 0,1 C 0,1 C 0,1 C 92 % 1020,0 hPa 0,0 l/m 0,0 km/h (0 Bft) W-SW 247 0 min 0,000 mm 19 W/m -1,0 C 0,1 C 4,8 km/h (1 Bft) 99 %
19.02.2016 09:30 0,2 C 0,1 C 0,2 C 92 % 1020,0 hPa 0,0 l/m 1,6 km/h (1 Bft) SW 225 0 min 0,000 mm 23 W/m -0,9 C 0,2 C 4,8 km/h (1 Bft) 100 %
19.02.2016 09:40 0,2 C 0,2 C 0,2 C 92 % 1020,1 hPa 0,0 l/m 0,0 km/h (0 Bft) N 0 0 min 0,000 mm 30 W/m -0,9 C 0,2 C 0,0 km/h (0 Bft) 100 %
19.02.2016 09:50 0,3 C 0,2 C 0,3 C 92 % 1020,2 hPa 0,0 l/m 0,0 km/h (0 Bft) SW 225 0 min 0,000 mm 35 W/m -0,8 C 0,3 C 4,8 km/h (1 Bft) 100 %
19.02.2016 10:00 0,4 C 0,3 C 0,4 C 92 % 1020,3 hPa 0,0 l/m 0,0 km/h (0 Bft) SW 225 0 min 0,000 mm 30 W/m -0,7 C 0,4 C 4,8 km/h (1 Bft) 100 %
19.02.2016 10:10 0,4 C 0,4 C 0,4 C 92 % 1020,5 hPa 0,0 l/m 0,0 km/h (0 Bft) SW 225 0 min 0,000 mm 30 W/m -0,7 C 0,4 C 4,8 km/h (1 Bft) 100 %
19.02.2016 10:20 0,4 C 0,4 C 0,4 C 92 % 1020,5 hPa 0,0 l/m 1,6 km/h (1 Bft) SW 225 0 min 0,000 mm 30 W/m -0,7 C 0,4 C 4,8 km/h (1 Bft) 100 %
19.02.2016 10:30 0,4 C 0,4 C 0,4 C 92 % 1020,5 hPa 0,0 l/m 0,0 km/h (0 Bft) SW 225 0 min 0,000 mm 26 W/m -0,7 C 0,4 C 4,8 km/h (1 Bft) 100 %
19.02.2016 10:40 0,5 C 0,4 C 0,5 C 92 % 1020,5 hPa 0,0 l/m 0,0 km/h (0 Bft) N 0 0 min 0,000 mm 35 W/m -0,6 C 0,5 C 0,0 km/h (0 Bft) 100 %
19.02.2016 10:50 0,6 C 0,5 C 0,6 C 92 % 1020,7 hPa 0,0 l/m 0,0 km/h (0 Bft) SW 225 0 min 0,000 mm 26 W/m -0,5 C 0,6 C 1,6 km/h (1 Bft) 100 %
19.02.2016 11:00 0,6 C 0,6 C 0,6 C 92 % 1020,7 hPa 0,0 l/m 0,0 km/h (0 Bft) SW 225 0 min 0,000 mm 25 W/m -0,5 C 0,6 C 1,6 km/h (1 Bft) 100 %
19.02.2016 11:10 0,7 C 0,6 C 0,7 C 92 % 1020,8 hPa 0,0 l/m 1,6 km/h (1 Bft) SW 225 0 min 0,000 mm 26 W/m -0,4 C 0,7 C 4,8 km/h (1 Bft) 100 %
19.02.2016 11:20 0,7 C 0,6 C 0,7 C 92 % 1020,8 hPa 0,0 l/m 0,0 km/h (0 Bft) SW 225 0 min 0,000 mm 37 W/m -0,4 C 0,7 C 4,8 km/h (1 Bft) 100 %
19.02.2016 11:30 0,8 C 0,6 C 0,8 C 92 % 1020,8 hPa 0,0 l/m 0,0 km/h (0 Bft) SW 232 0 min 0,000 mm 33 W/m -0,3 C 0,8 C 0,0 km/h (0 Bft) 97 %
19.02.2016 11:40 0,9 C 0,8 C 0,9 C 92 % 1020,8 hPa 0,0 l/m 0,1 km/h (0 Bft) SW 232 0 min 0,000 mm 46 W/m -0,2 C 0,9 C 3,2 km/h (1 Bft) 97 %
19.02.2016 11:50 1,0 C 0,9 C 1,0 C 92 % 1020,9 hPa 0,1 l/m 0,0 km/h (0 Bft) SW 232 0 min 0,000 mm 46 W/m -0,2 C 1,0 C 1,6 km/h (1 Bft) 97 %
19.02.2016 12:00 1,1 C 1,0 C 1,1 C 92 % 1020,8 hPa 0,0 l/m 0,6 km/h (0 Bft) SW 232 0 min 0,025 mm 51 W/m -0,1 C 1,1 C 4,8 km/h (1 Bft) 98 %
19.02.2016 12:10 1,2 C 1,1 C 1,2 C 92 % 1020,8 hPa 0,1 l/m 0,0 km/h (0 Bft) SW 232 0 min 0,000 mm 44 W/m 0,0 C 1,2 C 1,6 km/h (1 Bft) 97 %
19.02.2016 12:20 1,3 C 1,2 C 1,3 C 92 % 1020,8 hPa 0,0 l/m 1,4 km/h (1 Bft) SW 215 0 min 0,000 mm 46 W/m 0,1 C 1,3 C 8,0 km/h (2 Bft) 97 %
19.02.2016 12:30 1,4 C 1,3 C 1,4 C 91 % 1020,7 hPa 0,0 l/m 5,0 km/h (1 Bft) SW 216 0 min 0,000 mm 63 W/m 0,1 C 1,4 C 9,7 km/h (2 Bft) 98 %
19.02.2016 12:40 1,6 C 1,4 C 1,6 C 92 % 1020,7 hPa 0,0 l/m 4,7 km/h (1 Bft) SW 217 0 min 0,000 mm 54 W/m 0,4 C 1,6 C 11,3 km/h (2 Bft) 96 %
19.02.2016 12:50 1,8 C 1,6 C 1,8 C 92 % 1020,7 hPa 0,0 l/m 5,1 km/h (1 Bft) SW 229 0 min 0,000 mm 49 W/m 0,6 C 1,8 C 14,5 km/h (3 Bft) 97 %
19.02.2016 13:00 1,8 C 1,8 C 1,8 C 92 % 1020,9 hPa 0,0 l/m 7,4 km/h (2 Bft) SW 225 0 min 0,026 mm 30 W/m 0,6 C 0,8 C 17,7 km/h (3 Bft) 97 %
19.02.2016 13:10 1,7 C 1,7 C 1,8 C 92 % 1020,9 hPa 0,0 l/m 8,5 km/h (2 Bft) SW 234 0 min 0,000 mm 35 W/m 0,5 C -0,3 C 17,7 km/h (3 Bft) 97 %
19.02.2016 13:20 1,7 C 1,7 C 1,7 C 92 % 1021,0 hPa 0,2 l/m 6,4 km/h (2 Bft) W-SW 257 0 min 0,000 mm 72 W/m 0,5 C 1,7 C 16,1 km/h (3 Bft) 97 %
19.02.2016 13:30 1,8 C 1,7 C 1,8 C 92 % 1020,9 hPa 0,0 l/m 6,8 km/h (2 Bft) W-SW 255 0 min 0,000 mm 72 W/m 0,6 C 1,4 C 16,1 km/h (3 Bft) 97 %
19.02.2016 13:40 1,8 C 1,8 C 1,8 C 92 % 1021,1 hPa 0,0 l/m 6,5 km/h (2 Bft) W-NW 302 0 min 0,000 mm 62 W/m 0,6 C 1,7 C 14,5 km/h (3 Bft) 98 %
19.02.2016 13:50 1,9 C 1,8 C 1,9 C 92 % 1021,1 hPa 0,0 l/m 5,5 km/h (1 Bft) W-SW 252 0 min 0,000 mm 90 W/m 0,7 C 1,9 C 16,1 km/h (3 Bft) 97 %
19.02.2016 14:00 2,0 C 1,9 C 2,0 C 92 % 1021,2 hPa 0,0 l/m 6,0 km/h (2 Bft) W-SW 256 0 min 0,025 mm 40 W/m 0,8 C 2,0 C 16,1 km/h (3 Bft) 98 %
19.02.2016 14:10 2,1 C 2,0 C 2,1 C 92 % 1021,1 hPa 0,0 l/m 5,5 km/h (1 Bft) W 259 0 min 0,000 mm 16 W/m 0,9 C 2,1 C 16,1 km/h (3 Bft) 97 %
19.02.2016 14:20 2,0 C 2,0 C 2,1 C 92 % 1021,2 hPa 0,0 l/m 6,7 km/h (2 Bft) W 259 0 min 0,000 mm 14 W/m 0,8 C 1,7 C 19,3 km/h (3 Bft) 97 %
19.02.2016 14:30 2,0 C 2,0 C 2,0 C 92 % 1021,3 hPa 0,0 l/m 7,3 km/h (2 Bft) SW 234 0 min 0,000 mm 25 W/m 0,8 C 1,1 C 17,7 km/h (3 Bft) 97 %
19.02.2016 14:40 1,9 C 1,9 C 2,0 C 92 % 1021,3 hPa 0,0 l/m 8,4 km/h (2 Bft) SW 236 0 min 0,000 mm 23 W/m 0,7 C -0,0 C 20,9 km/h (4 Bft) 98 %
19.02.2016 14:50 1,9 C 1,9 C 1,9 C 92 % 1021,5 hPa 0,0 l/m 9,1 km/h (2 Bft) SW 223 0 min 0,000 mm 26 W/m 0,7 C -0,6 C 20,9 km/h (4 Bft) 99 %
19.02.2016 15:00 1,9 C 1,9 C 1,9 C 92 % 1021,6 hPa 0,0 l/m 8,9 km/h (2 Bft) SW 234 0 min 0,026 mm 40 W/m 0,7 C -0,5 C 22,5 km/h (4 Bft) 100 %
19.02.2016 15:10 1,9 C 1,8 C 1,9 C 92 % 1021,6 hPa 0,0 l/m 9,8 km/h (2 Bft) W 275 0 min 0,000 mm 81 W/m 0,7 C -1,2 C 22,5 km/h (4 Bft) 100 %
19.02.2016 15:20 1,9 C 1,9 C 1,9 C 92 % 1021,6 hPa 0,0 l/m 8,0 km/h (2 Bft) W-SW 252 0 min 0,000 mm 33 W/m 0,7 C 0,3 C 17,7 km/h (3 Bft) 100 %
19.02.2016 15:30 2,0 C 1,9 C 2,0 C 92 % 1021,7 hPa 0,0 l/m 4,4 km/h (1 Bft) W-SW 257 0 min 0,000 mm 14 W/m 0,8 C 2,0 C 14,5 km/h (3 Bft) 100 %
19.02.2016 15:40 1,9 C 1,9 C 2,0 C 92 % 1021,9 hPa 0,0 l/m 7,6 km/h (2 Bft) W 259 0 min 0,000 mm 16 W/m 0,7 C 0,7 C 20,9 km/h (4 Bft) 100 %
19.02.2016 15:50 1,8 C 1,8 C 1,9 C 92 % 1021,9 hPa 0,0 l/m 6,4 km/h (2 Bft) W-SW 240 0 min 0,000 mm 18 W/m 0,6 C 1,8 C 14,5 km/h (3 Bft) 91 %
19.02.2016 16:00 1,8 C 1,8 C 1,8 C 92 % 1022,0 hPa 0,0 l/m 4,6 km/h (1 Bft) SW 230 0 min 0,025 mm 12 W/m 0,6 C 1,8 C 14,5 km/h (3 Bft) 100 %
19.02.2016 16:10 1,8 C 1,8 C 1,8 C 92 % 1022,1 hPa 0,0 l/m 6,0 km/h (2 Bft) SW 223 0 min 0,000 mm 11 W/m 0,6 C 1,8 C 19,3 km/h (3 Bft) 100 %
19.02.2016 16:20 1,8 C 1,8 C 1,8 C 92 % 1022,1 hPa 0,0 l/m 5,4 km/h (1 Bft) W-SW 254 0 min 0,000 mm 14 W/m 0,6 C 1,8 C 16,1 km/h (3 Bft) 100 %
19.02.2016 16:30 1,7 C 1,7 C 1,8 C 92 % 1022,1 hPa 0,0 l/m 4,8 km/h (1 Bft) W 275 0 min 0,000 mm 18 W/m 0,5 C 1,7 C 14,5 km/h (3 Bft) 100 %
19.02.2016 16:40 1,7 C 1,7 C 1,8 C 92 % 1022,2 hPa 0,0 l/m 5,6 km/h (1 Bft) SW 236 0 min 0,000 mm 11 W/m 0,5 C 1,7 C 16,1 km/h (3 Bft) 100 %
19.02.2016 16:50 1,7 C 1,7 C 1,8 C 92 % 1022,3 hPa 0,0 l/m 3,7 km/h (1 Bft) W-SW 238 0 min 0,000 mm 5 W/m 0,5 C 1,7 C 11,3 km/h (2 Bft) 100 %
19.02.2016 17:00 1,7 C 1,7 C 1,7 C 92 % 1022,4 hPa 0,0 l/m 6,9 km/h (2 Bft) SW 236 0 min 0,000 mm 0 W/m 0,5 C 1,2 C 16,1 km/h (3 Bft) 100 %
19.02.2016 17:10 1,7 C 1,7 C 1,7 C 92 % 1022,4 hPa 0,0 l/m 6,4 km/h (2 Bft) SW 234 0 min 0,000 mm 5 W/m 0,5 C 1,7 C 14,5 km/h (3 Bft) 99 %
19.02.2016 17:20 1,8 C 1,7 C 1,8 C 92 % 1022,5 hPa 0,0 l/m 4,5 km/h (1 Bft) SW 216 0 min 0,000 mm 18 W/m 0,6 C 1,8 C 14,5 km/h (3 Bft) 100 %
19.02.2016 17:30 1,8 C 1,7 C 1,8 C 92 % 1022,7 hPa 0,2 l/m 3,0 km/h (1 Bft) SW 222 0 min 0,000 mm 0 W/m 0,6 C 1,8 C 9,7 km/h (2 Bft) 100 %
19.02.2016 17:40 1,8 C 1,7 C 1,8 C 92 % 1022,7 hPa 0,0 l/m 5,5 km/h (1 Bft) SW 215 0 min 0,000 mm 0 W/m 0,6 C 1,8 C 12,9 km/h (3 Bft) 100 %
19.02.2016 17:50 1,8 C 1,7 C 1,8 C 92 % 1022,8 hPa 0,0 l/m 1,7 km/h (1 Bft) SW 225 0 min 0,000 mm 0 W/m 0,6 C 1,8 C 9,7 km/h (2 Bft) 100 %
19.02.2016 18:01 1,8 C 1,7 C 1,8 C 92 % 1022,8 hPa 0,0 l/m 3,2 km/h (1 Bft) SW 219 0 min 0,000 mm 0 W/m 0,6 C 1,8 C 8,0 km/h (2 Bft) 100 %
19.02.2016 18:10 1,7 C 1,7 C 1,8 C 92 % 1022,9 hPa 0,0 l/m 4,0 km/h (1 Bft) W-SW 251 0 min 0,000 mm 0 W/m 0,5 C 1,7 C 9,7 km/h (2 Bft) 99 %
19.02.2016 18:20 1,7 C 1,7 C 1,7 C 92 % 1023,1 hPa 0,0 l/m 1,8 km/h (1 Bft) SW 223 0 min 0,000 mm 0 W/m 0,5 C 1,7 C 6,4 km/h (2 Bft) 100 %
19.02.2016 18:30 1,7 C 1,7 C 1,7 C 92 % 1023,2 hPa 0,0 l/m 2,8 km/h (1 Bft) S-SW 194 0 min 0,000 mm 0 W/m 0,5 C 1,7 C 8,0 km/h (2 Bft) 100 %
19.02.2016 18:40 1,7 C 1,7 C 1,7 C 92 % 1023,3 hPa 0,0 l/m 1,9 km/h (1 Bft) S 189 0 min 0,000 mm 0 W/m 0,5 C 1,7 C 6,4 km/h (2 Bft) 100 %
19.02.2016 18:50 1,7 C 1,7 C 1,8 C 92 % 1023,5 hPa 0,0 l/m 1,9 km/h (1 Bft) S 169 0 min 0,000 mm 0 W/m 0,5 C 1,7 C 6,4 km/h (2 Bft) 99 %
19.02.2016 19:00 1,8 C 1,7 C 1,8 C 92 % 1023,7 hPa 0,0 l/m 1,8 km/h (1 Bft) S 186 0 min 0,000 mm 0 W/m 0,6 C 1,8 C 8,0 km/h (2 Bft) 99 %
19.02.2016 19:10 1,7 C 1,7 C 1,8 C 92 % 1023,7 hPa 0,0 l/m 4,3 km/h (1 Bft) S-SW 206 0 min 0,000 mm 0 W/m 0,5 C 1,7 C 9,7 km/h (2 Bft) 99 %
19.02.2016 19:20 1,6 C 1,6 C 1,7 C 92 % 1023,9 hPa 0,0 l/m 2,2 km/h (1 Bft) SW 223 0 min 0,000 mm 0 W/m 0,4 C 1,6 C 6,4 km/h (2 Bft) 99 %
19.02.2016 19:30 1,4 C 1,4 C 1,6 C 92 % 1023,9 hPa 0,0 l/m 1,2 km/h (1 Bft) SW 222 0 min 0,000 mm 0 W/m 0,2 C 1,4 C 6,4 km/h (2 Bft) 100 %
19.02.2016 19:40 1,4 C 1,4 C 1,4 C 92 % 1023,9 hPa 0,0 l/m 1,7 km/h (1 Bft) W-SW 238 0 min 0,000 mm 0 W/m 0,2 C 1,4 C 8,0 km/h (2 Bft) 100 %
19.02.2016 19:50 1,2 C 1,2 C 1,4 C 92 % 1024,0 hPa 0,0 l/m 0,9 km/h (0 Bft) SW 236 0 min 0,000 mm 0 W/m 0,0 C 1,2 C 6,4 km/h (2 Bft) 99 %
19.02.2016 20:00 1,1 C 1,1 C 1,2 C 92 % 1024,0 hPa 0,0 l/m 3,6 km/h (1 Bft) SW 227 0 min 0,000 mm 0 W/m -0,1 C 1,1 C 8,0 km/h (2 Bft) 100 %
19.02.2016 20:10 0,9 C 0,9 C 1,1 C 92 % 1023,9 hPa 0,0 l/m 2,0 km/h (1 Bft) SW 227 0 min 0,000 mm 0 W/m -0,2 C 0,9 C 6,4 km/h (2 Bft) 100 %
19.02.2016 20:20 0,8 C 0,8 C 0,9 C 92 % 1023,9 hPa 0,0 l/m 1,1 km/h (1 Bft) SW 220 0 min 0,000 mm 0 W/m -0,3 C 0,8 C 6,4 km/h (2 Bft) 100 %
19.02.2016 20:30 0,7 C 0,7 C 0,8 C 92 % 1023,9 hPa 0,0 l/m 4,1 km/h (1 Bft) SW 232 0 min 0,000 mm 0 W/m -0,4 C 0,7 C 9,7 km/h (2 Bft) 100 %
19.02.2016 20:40 0,6 C 0,6 C 0,7 C 92 % 1023,9 hPa 0,0 l/m 6,2 km/h (2 Bft) SW 232 0 min 0,000 mm 0 W/m -0,5 C 0,6 C 14,5 km/h (3 Bft) 100 %
19.02.2016 20:50 0,6 C 0,6 C 0,6 C 92 % 1023,9 hPa 0,0 l/m 6,8 km/h (2 Bft) S-SW 209 0 min 0,000 mm 0 W/m -0,5 C 0,2 C 12,9 km/h (3 Bft) 100 %
19.02.2016 21:00 0,6 C 0,6 C 0,6 C 92 % 1023,9 hPa 0,0 l/m 8,0 km/h (2 Bft) S-SW 211 0 min 0,000 mm 0 W/m -0,5 C -1,0 C 14,5 km/h (3 Bft) 100 %
19.02.2016 21:10 0,6 C 0,6 C 0,6 C 92 % 1023,9 hPa 0,0 l/m 6,4 km/h (2 Bft) SW 225 0 min 0,000 mm 0 W/m -0,5 C 0,6 C 11,3 km/h (2 Bft) 100 %
19.02.2016 21:20 0,6 C 0,6 C 0,7 C 92 % 1023,9 hPa 0,0 l/m 4,8 km/h (1 Bft) SW 225 0 min 0,000 mm 0 W/m -0,5 C 0,6 C 9,7 km/h (2 Bft) 100 %
19.02.2016 21:30 0,6 C 0,6 C 0,6 C 92 % 1024,1 hPa 0,0 l/m 3,2 km/h (1 Bft) SW 225 0 min 0,000 mm 0 W/m -0,5 C 0,6 C 9,7 km/h (2 Bft) 90 %
19.02.2016 21:40 0,4 C 0,4 C 0,6 C 92 % 1024,1 hPa 0,0 l/m 3,2 km/h (1 Bft) S 180 0 min 0,000 mm 0 W/m -0,7 C 0,4 C 8,0 km/h (2 Bft) 100 %
19.02.2016 21:50 0,4 C 0,4 C 0,4 C 92 % 1024,2 hPa 0,0 l/m 1,6 km/h (1 Bft) S 180 0 min 0,000 mm 0 W/m -0,7 C 0,4 C 11,3 km/h (2 Bft) 100 %
19.02.2016 22:00 0,3 C 0,3 C 0,4 C 92 % 1024,0 hPa 0,0 l/m 1,6 km/h (1 Bft) S 180 0 min 0,000 mm 0 W/m -0,8 C 0,3 C 9,7 km/h (2 Bft) 100 %
19.02.2016 22:10 0,3 C 0,3 C 0,3 C 92 % 1024,1 hPa 0,0 l/m 3,2 km/h (1 Bft) S 180 0 min 0,000 mm 0 W/m -0,8 C 0,3 C 8,0 km/h (2 Bft) 100 %
19.02.2016 22:20 0,3 C 0,3 C 0,3 C 92 % 1024,1 hPa 0,0 l/m 0,0 km/h (0 Bft) S 180 0 min 0,000 mm 0 W/m -0,8 C 0,3 C 4,8 km/h (1 Bft) 100 %
19.02.2016 22:30 0,3 C 0,3 C 0,3 C 92 % 1024,0 hPa 0,0 l/m 1,6 km/h (1 Bft) S 180 0 min 0,000 mm 0 W/m -0,8 C 0,3 C 8,0 km/h (2 Bft) 100 %
19.02.2016 22:40 0,3 C 0,3 C 0,3 C 92 % 1024,0 hPa 0,0 l/m 1,6 km/h (1 Bft) S-SO 157 0 min 0,000 mm 0 W/m -0,8 C 0,3 C 6,4 km/h (2 Bft) 100 %
19.02.2016 22:50 0,4 C 0,3 C 0,4 C 92 % 1023,9 hPa 0,0 l/m 3,2 km/h (1 Bft) S-SO 157 0 min 0,000 mm 0 W/m -0,7 C 0,4 C 8,0 km/h (2 Bft) 100 %
19.02.2016 23:00 0,2 C 0,2 C 0,4 C 91 % 1023,8 hPa 0,0 l/m 0,0 km/h (0 Bft) S-SO 157 0 min 0,000 mm 0 W/m -1,1 C 0,2 C 4,8 km/h (1 Bft) 100 %
19.02.2016 23:10 0,1 C 0,1 C 0,2 C 92 % 1023,9 hPa 0,0 l/m 0,0 km/h (0 Bft) S 180 0 min 0,000 mm 0 W/m -1,0 C 0,1 C 1,6 km/h (1 Bft) 100 %
19.02.2016 23:20 0,0 C 0,0 C 0,1 C 92 % 1023,8 hPa 0,0 l/m 3,2 km/h (1 Bft) S-SO 157 0 min 0,000 mm 0 W/m -1,1 C 0,0 C 6,4 km/h (2 Bft) 100 %
19.02.2016 23:30 0,0 C -0,1 C 0,0 C 92 % 1023,9 hPa 0,0 l/m 3,2 km/h (1 Bft) S-SO 157 0 min 0,000 mm 0 W/m -1,1 C 0,0 C 6,4 km/h (2 Bft) 100 %
19.02.2016 23:40 -0,1 C -0,1 C -0,1 C 92 % 1023,8 hPa 0,0 l/m 4,8 km/h (1 Bft) S-SO 157 0 min 0,000 mm 0 W/m -1,2 C -0,1 C 8,0 km/h (2 Bft) 100 %
19.02.2016 23:50 0,0 C -0,1 C 0,0 C 92 % 1023,8 hPa 0,0 l/m 3,2 km/h (1 Bft) S 180 0 min 0,000 mm 0 W/m -1,1 C 0,0 C 11,3 km/h (2 Bft) 100 %
_ Min-Zeit 00:10 00:10 00:20 00:00 00:00 - 00:00 - - - - - 00:10 00:10 00:20 07:40
Minimum _ -1,8 C -1,8 C -1,8 C 91 % 1016,9 hPa - 0,0 km/h (0 Bft) - - - - - -3,1 C -1,8 C 0,0 km/h (0 Bft) 89 %
_ Max-Zeit 14:10 14:10 14:10 02:50 21:50 13:20 15:10 - - 00:00 13:00 13:50 14:10 14:10 15:00 06:50
Maximum _ 2,1 C 2,0 C 2,1 C 92 % 1024,2 hPa 0,2 l/m 9,8 km/h
W (2 Bft)
- - 0 min 0,026 mm 90 W/m 0,9 C 2,1 C 22,5 km/h
W-SW (4 Bft)
100 %
Durchschnitt _ 0,6 C 0,6 C 0,6 C 92 % 1020,6 hPa #1,2 l/m 2,2 km/h (1 Bft) SW - #0 min. #0,127 mm 31 W/m -0,6 C 0,5 C 6,5 km/h (2 Bft) 99 %
PRIVATE WETTERSTATION BILLIGHEIM-ALLFELD - www.neckar-odenwald-wetter.de - Holger Sonntag